CW6451 Weather Reports


Display with metric or nautical units.
time (UTC)temp
F
wind
direction
speed
MPH
gust
MPH
rain 1hr
in
rain 24hr
in
rain mn
in
humidity
%
barometer
mb
20260904131544 72 229 2.0 7.0 0.00 0.03 0.00 96 1010.6
20260904130044 71 216 2.0 6.0 0.00 0.03 0.00 97 1010.4
20260904124548 71 238 1.0 8.0 0.00 0.03 0.00 98 1010.6
20260904123045 71 263 1.0 6.0 0.00 0.03 0.00 98 1010.7
20260904121544 70 246 2.0 6.0 0.00 0.03 0.00 99 1010.8
20260904120049 70 217 2.0 4.0 0.00 0.03 0.00 99 1010.7
20260904114548 70 0 0.0 4.0 0.00 0.05 0.00 99 1010.7
20260904113047 69 0 1.0 3.0 0.00 0.05 0.00 98 1010.7
20260904111555 69 236 0.0 3.0 0.00 0.05 0.00 98 1010.7
20260904110043 69 0 0.0 2.0 0.00 0.05 0.00 98 1010.8
20260904104556 69 0 0.0 1.0 0.00 0.07 0.00 98 1010.8
20260904103045 70 0 0.0 3.0 0.00 0.07 0.00 98 1010.7
20260904101544 70 0 0.0 2.0 0.00 0.07 0.00 99 1010.5
20260904100049 70 245 0.0 1.0 0.00 0.07 0.00 99 1010.3
20260904094547 70 0 0.0 1.0 0.00 0.23 0.00 99 1010.1
20260904093046 70 0 0.0 2.0 0.00 0.23 0.00 98 1010.2
20260904091543 70 0 0.0 7.0 0.00 0.23 0.00 98 1010.0
20260904090049 70 0 0.0 1.0 0.00 0.23 0.00 98 1009.8
20260904084547 70 0 0.0 0.0 0.00 0.27 0.00 98 1010.0
20260904083045 70 0 0.0 0.0 0.00 0.27 0.00 98 1010.0
20260904081549 70 0 0.0 1.0 0.00 0.27 0.00 98 1010.0
20260904080047 70 0 0.0 1.0 0.00 0.27 0.00 98 1010.0
20260904074547 70 0 0.0 0.0 0.00 0.28 0.00 98 1010.1
20260904073054 70 0 0.0 3.0 0.00 0.28 0.00 98 1010.2
20260904071603 70 0 0.0 3.0 0.00 0.28 0.00 98 1010.5
20260904070048 70 124 0.0 3.0 0.00 0.28 0.00 99 1010.6
20260904064546 70 0 0.0 2.0 0.00 0.29 0.00 99 1010.7
20260904063051 70 198 0.0 2.0 0.00 0.29 0.00 99 1010.8
20260904061547 69 0 0.0 2.0 0.00 0.29 0.00 99 1011.1
20260904060050 69 0 0.0 1.0 0.00 0.29 0.00 98 1011.0
20260904054544 69 0 0.0 1.0 0.00 0.29 0.00 98 1011.2
20260904053048 70 0 0.0 1.0 0.00 0.29 0.00 98 1011.5
20260904051547 69 0 0.0 2.0 0.00 0.29 0.00 98 1011.6
20260904050048 69 0 0.0 1.0 0.00 0.29 0.00 98 1011.7
20260904044552 69 0 0.0 2.0 0.00 0.29 0.00 98 1011.9
20260904043105 69 205 0.0 2.0 0.00 0.29 0.00 98 1012.2
20260904041550 69 0 0.0 2.0 0.00 0.29 0.00 97 1012.3
20260904040055 69 0 0.0 0.0 0.00 0.29 0.00 97 1012.2
20260904034546 70 0 0.0 0.0 0.00 0.29 0.29 97 1012.3
20260904033047 70 0 0.0 0.0 0.00 0.29 0.29 97 1012.3
20260904031544 70 0 0.0 2.0 0.00 0.29 0.29 97 1012.3
20260904030049 70 0 0.0 2.0 0.00 0.29 0.29 97 1012.1
20260904024549 70 0 0.0 3.0 0.00 0.29 0.29 97 1012.6
20260904023055 71 243 0.0 2.0 0.00 0.29 0.29 97 1012.7
20260904021556 71 0 0.0 1.0 0.00 0.29 0.29 96 1012.8
20260904020050 71 0 0.0 0.0 0.00 0.29 0.29 96 1012.8
20260904014551 71 0 0.0 1.0 0.00 0.29 0.29 96 1012.9
20260904013047 71 0 0.0 2.0 0.00 0.29 0.29 96 1013.2
20260904011555 72 0 0.0 2.0 0.00 0.29 0.29 96 1013.3
20260904010046 72 0 0.0 2.0 0.00 0.29 0.29 95 1013.0
20260904004551 72 0 0.0 2.0 0.00 0.29 0.29 96 1012.9
20260904003045 72 0 0.0 3.0 0.00 0.29 0.29 95 1012.8
20260904001544 72 0 1.0 4.0 0.00 0.29 0.29 94 1012.7
20260904000051 72 237 2.0 4.0 0.00 0.29 0.29 93 1012.4
20260903234546 73 229 0.0 5.0 0.00 0.29 0.29 92 1012.5
20260903233047 73 168 2.0 5.0 0.00 0.29 0.29 92 1012.2
20260903231552 74 0 1.0 4.0 0.00 0.29 0.29 90 1012.1
20260903230047 75 0 2.0 7.0 0.00 0.29 0.29 88 1011.9
20260903224610 76 229 0.0 4.0 0.00 0.29 0.29 86 1012.1
20260903223051 77 184 1.0 5.0 0.00 0.29 0.29 86 1012.2
20260903221548 77 0 0.0 4.0 0.00 0.29 0.29 86 1012.4
20260903220059 78 227 0.0 6.0 0.00 0.29 0.29 84 1012.5
20260903214547 78 267 1.0 5.0 0.00 0.29 0.29 85 1012.4
20260903213049 78 181 0.0 7.0 0.00 0.29 0.29 85 1012.1
20260903211547 78 194 2.0 7.0 0.00 0.29 0.29 84 1012.3
20260903210052 78 257 2.0 6.0 0.00 0.29 0.29 85 1012.4
20260903204548 76 182 2.0 7.0 0.00 0.29 0.29 87 1012.2
20260903203046 78 213 2.0 7.0 0.00 0.29 0.29 83 1012.5
20260903201546 78 224 1.0 4.0 0.00 0.29 0.29 87 1012.5
20260903200058 78 0 0.0 7.0 0.00 0.29 0.29 87 1012.5
20260903194552 77 201 3.0 7.0 0.00 0.29 0.29 86 1012.9
20260903193053 77 250 1.0 5.0 0.00 0.29 0.29 88 1013.1
20260903191545 77 0 1.0 6.0 0.00 0.29 0.29 86 1013.2
20260903190054 78 0 1.0 7.0 0.00 0.29 0.29 85 1013.2
20260903184547 78 126 1.0 8.0 0.00 0.29 0.29 86 1013.2
20260903183046 79 190 1.0 9.0 0.00 0.29 0.29 87 1013.3
20260903181544 77 214 3.0 10.0 0.00 0.29 0.29 87 1013.3
20260903180053 78 236 3.0 8.0 0.00 0.29 0.29 86 1013.5
20260903174547 79 191 3.0 10.0 0.00 0.29 0.29 86 1013.5
20260903173045 78 227 2.0 8.0 0.00 0.29 0.29 89 1013.4
20260903171602 77 0 3.0 9.0 0.00 0.29 0.29 90 1013.5
20260903170046 76 255 2.0 10.0 0.00 0.29 0.29 94 1013.7
20260903164554 75 217 3.0 8.0 0.00 0.29 0.29 95 1013.7
20260903163043 74 278 3.0 8.0 0.00 0.29 0.29 97 1013.6
20260903161549 74 222 4.0 10.0 0.00 0.29 0.29 98 1013.7
20260903160045 74 217 2.0 8.0 0.00 0.29 0.29 99 1013.8
20260903154545 73 223 1.0 3.0 0.00 0.29 0.29 100 1013.7
20260903153049 73 218 1.0 4.0 0.00 0.29 0.29 100 1013.9
20260903151544 72 261 1.0 5.0 0.00 0.29 0.29 100 1014.2
20260903144549 71 0 0.0 6.0 0.01 0.29 0.29 100 1014.6
20260903143102 71 279 0.0 4.0 0.01 0.29 0.29 100 1014.9
20260903141546 71 273 1.0 4.0 0.01 0.29 0.29 100 1015.1
20260903140055 71 275 1.0 6.0 0.02 0.28 0.28 100 1015.5
20260903134553 71 209 1.0 4.0 0.02 0.28 0.28 100 1015.4
20260903133047 71 263 0.0 3.0 0.02 0.28 0.28 100 1015.4